TimeCDT,TemperatureF,Dew PointF,Humidity,Sea Level PressureIn,VisibilityMPH,Wind Direction,Wind SpeedMPH,Gust SpeedMPH,PrecipitationIn,Events,Conditions,WindDirDegrees,DateUTC
12:54 AM,53.1,44.1,71,30.20,10.0,NNW,10.4,-,N/A,,Overcast,340,2012-10-05 05:54:00
1:54 AM,52.0,43.0,71,30.20,10.0,North,8.1,-,N/A,,Overcast,10,2012-10-05 06:54:00
2:54 AM,52.0,43.0,71,30.19,10.0,North,11.5,-,N/A,,Overcast,350,2012-10-05 07:54:00
3:54 AM,51.1,43.0,74,30.22,10.0,North,9.2,-,N/A,,Overcast,360,2012-10-05 08:54:00
4:43 AM,50.0,44.6,82,30.22,10.0,North,6.9,-,N/A,,Overcast,360,2012-10-05 09:43:00
4:54 AM,50.0,44.1,80,30.21,10.0,North,8.1,-,N/A,,Overcast,360,2012-10-05 09:54:00
5:27 AM,50.0,44.6,82,30.25,10.0,NW,8.1,-,0.00,,Overcast,320,2012-10-05 10:27:00
5:35 AM,48.2,44.6,87,30.23,8.0,North,10.4,-,0.01,Rain-Thunderstorm,Thunderstorms and Rain,350,2012-10-05 10:35:00
5:54 AM,48.0,45.0,89,30.20,10.0,NNE,8.1,-,0.02,Rain-Thunderstorm,Light Rain,30,2012-10-05 10:54:00
6:01 AM,48.2,44.6,87,30.19,8.0,NE,9.2,-,0.01,Rain,Light Rain,40,2012-10-05 11:01:00
6:42 AM,48.2,44.6,87,30.26,10.0,NW,8.1,-,0.02,Rain-Thunderstorm,Light Thunderstorms and Rain,320,2012-10-05 11:42:00
6:54 AM,46.9,45.0,93,30.23,3.0,Variable,3.5,-,0.09,Rain-Thunderstorm,Thunderstorms and Rain,0,2012-10-05 11:54:00
7:06 AM,46.4,44.6,93,30.22,2.5,North,6.9,-,0.05,Rain-Thunderstorm,Thunderstorms and Rain,10,2012-10-05 12:06:00
7:16 AM,46.4,44.6,93,30.23,5.0,North,5.8,-,0.07,Rain-Thunderstorm,Light Thunderstorms and Rain,360,2012-10-05 12:16:00
7:30 AM,46.4,44.6,93,30.21,3.0,NNE,5.8,-,0.15,Rain-Thunderstorm,Heavy Thunderstorms and Rain,30,2012-10-05 12:30:00
7:54 AM,46.9,45.0,93,30.23,10.0,North,5.8,-,0.17,Rain,Light Rain,10,2012-10-05 12:54:00
8:03 AM,46.4,44.6,93,30.22,10.0,NNE,5.8,-,0.00,Rain-Thunderstorm,Light Rain,20,2012-10-05 13:03:00
8:24 AM,46.4,44.6,93,30.22,10.0,North,8.1,-,0.00,,Overcast,10,2012-10-05 13:24:00
8:34 AM,46.4,44.6,93,30.23,10.0,North,5.8,-,0.00,Rain,Light Rain,10,2012-10-05 13:34:00
8:49 AM,46.4,44.6,93,30.23,10.0,NNE,5.8,-,0.00,,Overcast,30,2012-10-05 13:49:00
8:54 AM,46.9,45.0,93,30.22,8.0,NNE,6.9,-,0.01,Rain,Light Rain,20,2012-10-05 13:54:00
9:22 AM,46.4,42.8,87,30.22,6.0,North,9.2,-,0.02,Rain,Light Rain,10,2012-10-05 14:22:00
9:54 AM,46.0,43.0,89,30.24,10.0,NNW,5.8,-,0.02,Rain,Light Rain,340,2012-10-05 14:54:00
10:54 AM,46.9,43.0,86,30.22,10.0,North,6.9,-,0.01,,Overcast,10,2012-10-05 15:54:00
11:03 AM,46.4,42.8,87,30.21,10.0,North,6.9,-,N/A,,Overcast,10,2012-10-05 16:03:00
11:54 AM,46.0,42.1,86,30.22,6.0,NNW,12.7,-,0.02,Rain-Thunderstorm,Thunderstorms and Rain,340,2012-10-05 16:54:00
12:01 PM,44.6,41.0,87,30.21,1.8,North,9.2,-,0.09,Rain-Thunderstorm,Heavy Thunderstorms and Rain,10,2012-10-05 17:01:00
12:12 PM,44.6,42.8,93,30.20,3.0,NNE,4.6,-,0.11,Rain-Thunderstorm,Light Rain,20,2012-10-05 17:12:00
12:54 PM,46.9,42.1,83,30.20,10.0,North,8.1,-,0.12,,Overcast,360,2012-10-05 17:54:00
1:54 PM,46.0,39.0,76,30.17,10.0,NNE,6.9,-,N/A,,Overcast,30,2012-10-05 18:54:00
2:54 PM,46.0,41.0,83,30.20,10.0,NW,4.6,-,0.00,,Overcast,310,2012-10-05 19:54:00
3:54 PM,46.0,42.1,86,30.20,2.5,NNW,9.2,-,0.09,Rain-Thunderstorm,Light Thunderstorms and Rain,330,2012-10-05 20:54:00
3:56 PM,46.4,42.8,87,30.20,3.0,NW,8.1,-,0.00,Rain-Thunderstorm,Light Rain,320,2012-10-05 20:56:00
4:14 PM,46.4,42.8,87,30.18,10.0,North,13.8,17.3,0.00,,Overcast,350,2012-10-05 21:14:00
4:22 PM,46.4,42.8,87,30.19,10.0,NNW,10.4,-,0.00,Rain,Light Rain,340,2012-10-05 21:22:00
4:54 PM,46.0,41.0,83,30.21,10.0,NW,11.5,-,0.00,,Overcast,320,2012-10-05 21:54:00
5:54 PM,46.0,39.9,79,30.21,10.0,NW,5.8,-,0.00,Rain,Light Rain,310,2012-10-05 22:54:00
6:54 PM,45.0,39.0,80,30.18,10.0,Calm,Calm,-,0.00,,Overcast,0,2012-10-05 23:54:00
7:54 PM,44.1,39.0,82,30.20,10.0,NW,6.9,-,N/A,,Mostly Cloudy,310,2012-10-06 00:54:00
8:54 PM,43.0,37.0,80,30.21,10.0,NW,5.8,-,N/A,,Clear,310,2012-10-06 01:54:00
9:54 PM,42.1,36.0,79,30.23,10.0,NNW,6.9,-,N/A,,Clear,330,2012-10-06 02:54:00
10:54 PM,41.0,36.0,82,30.23,10.0,NW,9.2,-,N/A,,Clear,320,2012-10-06 03:54:00
11:54 PM,41.0,36.0,82,30.22,10.0,NW,8.1,-,N/A,,Clear,310,2012-10-06 04:54:00